Regional Weather Roundup
Issued by NWS

Home | Current Version | Previous Version | Graphics & Text | Print | Product List | Glossary On
Versions: 1 2 3 4 5 6 7 8 9 10 11 12 13 14 15 16 17 18 19 20 21 22 23 24 25 26 27 28 29 30 31 32 33 34 35 36 37 38 39 40 41 42 43 44 45 46 47 48 49 50
000
ASUS43 KFSD 232302
RWRSD

WEATHER ROUNDUP FOR SOUTH DAKOTA
NATIONAL WEATHER SERVICE SIOUX FALLS SD
600 PM CDT MON OCT 23 2017

NOTE: "FAIR" INDICATES FEW OR NO CLOUDS BELOW 12,000 FEET WITH NO
SIGNIFICANT WEATHER AND/OR OBSTRUCTIONS TO VISIBILITY.


SDZ001>005-009-010-012>017-240000-
NORTHWEST AND NORTH CENTRAL SOUTH DAKOTA

CITY           SKY/WX    TMP DP  RH WIND       PRES   REMARKS
BUFFALO          N/A     54  21  27 NW35G47   30.25R
FAITH            N/A     55  22  27 NW32G47   30.25R
MOBRIDGE       CLOUDY    56  28  34 N28G36    30.13
$$

SDZ012>016-024>037-041>051-057-063-072>074-240000-
SOUTHWEST AND SOUTH CENTRAL SOUTH DAKOTA

CITY           SKY/WX    TMP DP  RH WIND       PRES   REMARKS
RAPID CTY ARPT CLEAR     54  16  22 NW31G41   30.34R
PIERRE         PTCLDY    57  27  31 NW26G45   30.16S
CUSTER         CLEAR     42  18  37 NW12G26   30.38R
ELLSWORTH AFB  CLEAR     54  17  23 NW29G40   30.32R
PHILIP         CLOUDY    57  23  26 N33G45    30.26R
PINE RIDGE     CLEAR     55  16  21 N23G35    30.33
SPEARFISH      FAIR      50  19  29 NW24G31   30.38R
WINNER         FAIR      54  33  45 NW17      30.19S
$$

SDZ004>011-016>023-039-040-240000-
NORTHEAST SOUTH DAKOTA

CITY           SKY/WX    TMP DP  RH WIND       PRES   REMARKS
ABERDEEN       CLOUDY    54  34  46 NW22      30.07R
WATERTOWN      CLOUDY    50  35  56 NW22G30   30.02R
BROOKINGS      CLOUDY    51  33  50 NW21G28   30.02R
SISSETON         N/A     54  34  46 NW26G36   29.98R
$$

SDZ017-020-022-023-036>040-048>070-240000-
SOUTHEAST SOUTH DAKOTA

CITY           SKY/WX    TMP DP  RH WIND       PRES   REMARKS
SIOUX FALLS    MOCLDY    54  31  41 NW25G35   30.03R
HURON          CLOUDY    54  31  41 NW21      30.08R
CHAMBERLAIN    MOCLDY    57  33  39 NW21G32   30.15S
MITCHELL       CLOUDY    55  31  39 NW18G28   30.10R
YANKTON        MOCLDY    54  34  46 NW24G35   30.09S
$$

ABBREVIATIONS USED IN REMARKS
   TC - TEMPERATURE IN CELSIUS
  WCI - WIND CHILL INDEX
   HX - HEAT INDEX
  VSB - VISIBILITY




USA.gov is the U.S. government's official web portal to all federal, state and local government web resources and services.